Regional Weather Roundup
Issued by NWS Green Bay, WI

Home | Current Version | Previous Version | Text Only | Print | Product List | Glossary On
Versions: 1 2 3 4 5 6 7 8 9 10 11 12 13 14 15 16 17 18 19 20 21 22 23 24 25 26 27 28 29 30 31 32 33 34 35 36 37 38 39 40 41 42 43 44 45 46 47 48 49 50
000
ASUS43 KGRB 230700
RWRGRB

NORTH-CENTRAL AND NORTHEAST WISCONSIN REGIONAL WEATHER ROUNDUP
NATIONAL WEATHER SERVICE GREEN BAY WI
200 AM CDT FRI JUN 23 2017

WIZ005-009-010>012-018-019-230800-
NORTH CENTRAL WISCONSIN

CITY           SKY/WX    TMP DP  RH WIND       PRES   REMARKS
IRONWOOD       CLEAR     53  52  96 CALM      29.67F
MANITOWISH WTR NOT AVBL
ARBOR VITAE    NOT AVBL
EAGLE RIVER    NOT AVBL
LAND O LAKES   CLOUDY    58  56  91 CALM      29.71F
RHINELANDER    FOG       56  56 100 W3        29.71S VSB 1
PHILLIPS       NOT AVBL
ANTIGO         NOT AVBL
TOMAHAWK       NOT AVBL
MERRILL        CLOUDY    61  61 100 CALM      29.72S
$$

WIZ013-073-230800-
NORTHEAST WISCONSIN

CITY           SKY/WX    TMP DP  RH WIND       PRES   REMARKS
IRON MOUNTAIN  PTCLDY    59  56  89 CALM      29.65F
MARINETTE      LGT RAIN  65  64  97 CALM      29.65F
$$

WIZ017-030-035>037-045-230800-
CENTRAL WISCONSIN

CITY           SKY/WX    TMP DP  RH WIND       PRES   REMARKS
MEDFORD        NOT AVBL
WAUSAU         CLOUDY    62  61  96 W5        29.70S
MOSINEE        NOT AVBL
MARSHFIELD     CLOUDY    63  60  90 NW3       29.71F
WISC RAPIDS    CLOUDY    66  65  96 N6        29.73F
STEVENS POINT  NOT AVBL
WAUPACA        CLOUDY    67  67  99 NW3       29.69F
SHAWANO        NOT AVBL
CLINTONVILLE   NOT AVBL
WAUTOMA        LGT RAIN  65  64  97 NW5       29.70F
$$

WIZ038-039-048-051-230800-
FOX VALLEY

CITY           SKY/WX    TMP DP  RH WIND       PRES   REMARKS
NWS GREEN BAY  CLOUDY    66  66 100 W8        29.68R
APPLETON       NOT AVBL
OSHKOSH        LGT RAIN  66  65  96 N3        29.66F
FOND DU LAC    LGT RAIN  67  64  90 NW3       29.68F
$$

WIZ022-050-052-230800-
EAST CENTRAL WISCONSIN

CITY           SKY/WX    TMP DP  RH WIND       PRES   REMARKS
EPHRAIM        NOT AVBL
WASHINGTON ISL NOT AVBL
STURGEON BAY     N/A     66  66 100 W6          N/A  FOG
MANITOWOC      NOT AVBL
SHEBOYGAN      TSTM      67  67 100 CALM      29.67S FOG
$$

LMZ563-521-522-541>543-230800-
LAKESHORE

STATION/POSITION TIME  TEMP    WIND        PRES    VSBY  WAVE
                       AIR SEA DIR/SP/G                  HT/PER
                 (UTC) (F)     (DEG/KT/KT) (MB)    (MI)  (FT/S)
SHEBOYGAN LKSHOR 0600   65     350/  6/  7 1004.0F
KEWAUNEE LKSHORE 0630   66     280/  4/  7 1004.1F
NORTHPORT PIER   0640   65     220/  3/  4 1003.7F
N MID LAKE BUOY  0550   57 54  180/  8/ 10 1004.5F         2/ 5
S GREEN BAY BUOY 0630   67     230/  8/ 10 1004.5
CHAMBERS ISLAND  0640   65     210/  5/  8 1004.1R
MENOMINEE LKSHOR 0630          220/  6/  7 1003.8R
$$




USA.gov is the U.S. government's official web portal to all federal, state and local government web resources and services.